H1 CPF 2 NER 2022 9 10 9 253 01 glonass133 H2 1403201 9133 40001 2022 9 10 0 0 0 2022 9 13 23 45 0 900 1 1 0 0 0 1 H9 10 0 59832 0.00000 0 -17894086.763 -10359531.544 -14915250.730 10 0 59832 900.00000 0 -15955695.419 -9889584.366 -17253906.444 10 0 59832 1800.00000 0 -13721614.774 -9543822.346 -19256994.849 10 0 59832 2700.00000 0 -11244821.880 -9362936.091 -20885677.237 10 0 59832 3600.00000 0 -8586639.393 -9377603.192 -22108422.842 10 0 59832 4500.00000 0 -5814389.431 -9607081.972 -22901611.769 10 0 59832 5400.00000 0 -2998807.765 -10058303.425 -23249982.388 10 0 59832 6300.00000 0 -211325.754 -10725498.860 -23146915.624 10 0 59832 7200.00000 0 2478667.401 -11590378.221 -22594551.715 10 0 59832 8100.00000 0 5006469.300 -12622850.978 -21603738.203 10 0 59832 9000.00000 0 7314507.354 -13782258.870 -20193810.863 10 0 59832 9900.00000 0 9354480.093 -15019068.555 -18392212.383 10 0 59832 10800.00000 0 11089109.649 -16276953.154 -16233956.371 10 0 59832 11700.00000 0 12493434.306 -17495175.631 -13760947.046 10 0 59832 12600.00000 0 13555589.047 -18611174.305 -11021167.612 10 0 59832 13500.00000 0 14277043.379 -19563242.549 -8067752.655 10 0 59832 14400.00000 0 14672288.063 -20293190.639 -4957962.117 10 0 59832 15300.00000 0 14767985.087 -20748878.360 -1752076.327 10 0 59832 16200.00000 0 14601617.697 -20886512.334 1487766.914 10 0 59832 17100.00000 0 14219697.835 -20672611.565 4698771.051 10 0 59832 18000.00000 0 13675606.866 -20085558.533 7818692.324 10 0 59832 18900.00000 0 13027160.716 -19116670.382 10787040.963 10 0 59832 19800.00000 0 12334001.944 -17770744.557 13546249.116 10 0 59832 20700.00000 0 11654928.477 -16066055.180 16042783.054 10 0 59832 21600.00000 0 11045271.324 -14033799.022 18228178.505 10 0 59832 22500.00000 0 10554431.553 -11717012.915 20059979.398 10 0 59832 23400.00000 0 10223680.168 -9169006.307 21502562.055 10 0 59832 24300.00000 0 10084313.590 -6451372.718 22527829.135 10 0 59832 25200.00000 0 10156242.696 -3631661.250 23115759.964 10 0 59832 26100.00000 0 10447075.381 -780803.628 23254806.437 10 0 59832 27000.00000 0 10951732.107 2029597.667 22942126.534 10 0 59832 27900.00000 0 11652611.734 4730008.589 22183650.298 10 0 59832 28800.00000 0 12520301.910 7255616.927 20993976.204 10 0 59832 29700.00000 0 13514805.457 9548790.161 19396098.963 10 0 59832 30600.00000 0 14587232.340 11561235.771 17420972.951 10 0 59832 31500.00000 0 15681886.927 13255773.932 15106918.751 10 0 59832 32400.00000 0 16738663.200 14607648.625 12498883.435 10 0 59832 33300.00000 0 17695647.100 15605322.284 9647568.314 10 0 59832 34200.00000 0 18491815.896 16250720.701 6608440.910 10 0 59832 35100.00000 0 19069719.847 16558918.248 3440650.478 10 0 59832 36000.00000 0 19378031.837 16557277.230 205868.696 10 0 59832 36900.00000 0 19373855.912 16284078.520 -3032920.929 10 0 59832 37800.00000 0 19024695.827 15786702.481 -6212660.252 10 0 59832 38700.00000 0 18309999.140 15119438.431 -9271454.901 10 0 59832 39600.00000 0 17222210.609 14341016.782 -12149788.469 10 0 59832 40500.00000 0 15767289.662 13511969.726 -14791687.746 10 0 59832 41400.00000 0 13964669.664 12691933.374 -17145815.562 10 0 59832 42300.00000 0 11846660.547 11937006.420 -19166469.434 10 0 59832 43200.00000 0 9457319.911 11297277.524 -20814466.664 10 0 59832 44100.00000 0 6850840.031 10814625.939 -22057899.092 10 0 59832 45000.00000 0 4089518.438 10520887.879 -22872743.524 10 0 59832 45900.00000 0 1241396.780 10436465.239 -23243317.044 10 0 59832 46800.00000 0 -1622333.867 10569434.336 -23162569.490 10 0 59832 47700.00000 0 -4430053.685 10915191.121 -22632208.501 10 0 59832 48600.00000 0 -7112448.523 11456646.770 -21662655.765 10 0 59832 49500.00000 0 -9605145.588 12164964.517 -20272836.060 10 0 59832 50400.00000 0 -11851142.227 13000806.135 -18489803.733 10 0 59832 51300.00000 0 -13802928.490 13916035.252 -16348214.091 10 0 59832 52200.00000 0 -15424216.957 14855805.852 -13889649.910 10 0 59832 53100.00000 0 -16691209.409 15760948.256 -11161815.940 10 0 59832 54000.00000 0 -17593349.309 16570552.575 -8217616.638 10 0 59832 54900.00000 0 -18133530.085 17224641.300 -5114134.512 10 0 59832 55800.00000 0 -18327752.000 17666819.125 -1911528.562 10 0 59832 56700.00000 0 -18204242.881 17846788.692 1328126.348 10 0 59832 57600.00000 0 -17802080.378 17722626.426 4542037.039 10 0 59832 58500.00000 0 -17169374.284 17262722.825 7667903.535 10 0 59832 59400.00000 0 -16361085.519 16447305.187 10645121.385 10 0 59832 60300.00000 0 -15436573.588 15269478.213 13415951.801 10 0 59832 61200.00000 0 -14456975.564 13735737.917 15926637.146 10 0 59832 62100.00000 0 -13482526.563 11865936.056 18128440.524 10 0 59832 63000.00000 0 -12569934.174 9692695.124 19978589.691 10 0 59832 63900.00000 0 -11769916.947 7260296.751 21441107.205 10 0 59832 64800.00000 0 -11125010.245 4623088.112 22487511.044 10 0 59832 65700.00000 0 -10667731.639 1843470.911 23097372.195 10 0 59832 66600.00000 0 -10419183.146 -1010445.062 23258718.286 10 0 59832 67500.00000 0 -10388149.450 -3867427.804 22968275.164 10 0 59832 68400.00000 0 -10570730.675 -6655842.343 22231541.146 10 0 59832 69300.00000 0 -10950525.974 -9306391.293 21062691.712 10 0 59832 70200.00000 0 -11499361.169 -11754763.516 19484315.556 10 0 59832 71100.00000 0 -12178530.731 -13944081.106 17526985.997 10 0 59832 72000.00000 0 -12940502.605 -15827042.746 15228675.114 10 0 59832 72900.00000 0 -13731014.527 -17367673.991 12634021.043 10 0 59832 73800.00000 0 -14491473.582 -18542611.101 9793462.014 10 0 59832 74700.00000 0 -15161557.423 -19341864.489 6762253.738 10 0 59832 75600.00000 0 -15681906.578 -19769029.770 3599389.303 10 0 59832 76500.00000 0 -15996792.979 -19840937.803 366443.124 10 0 59832 77400.00000 0 -16056650.535 -19586759.022 -2873637.637 10 0 59832 78300.00000 0 -15820359.270 -19046600.738 -6057769.516 10 0 59832 79200.00000 0 -15257184.992 -18269657.803 -9123971.709 10 0 59832 80100.00000 0 -14348291.237 -17311996.112 -12012582.086 10 0 59832 81000.00000 0 -13087758.573 -16234064.049 -14667425.461 10 0 59832 81900.00000 0 -11483067.526 -15098038.327 -17036910.605 10 0 59832 82800.00000 0 -9555024.340 -13965117.402 -19075034.092 10 0 59832 83700.00000 0 -7337132.495 -12892877.454 -20742271.478 10 0 59832 84600.00000 0 -4874436.244 -11932802.630 -22006338.903 10 0 59832 85500.00000 0 -2221884.675 -11128093.482 -22842810.966 10 0 59833 0.00000 0 557715.176 -10511845.173 -23235583.933 10 0 59833 900.00000 0 3396072.534 -10105670.792 -23177176.511 10 0 59833 1800.00000 0 6222012.098 -9918827.170 -22668863.032 10 0 59833 2700.00000 0 8964195.884 -9947877.424 -21720638.217 10 0 59833 3600.00000 0 11553851.790 -10176903.990 -20351014.322 10 0 59833 4500.00000 0 13927398.095 -10578261.647 -18586655.467 10 0 59833 5400.00000 0 16028856.020 -11113838.065 -16461856.438 10 0 59833 6300.00000 0 17811951.528 -11736768.293 -14017876.027 10 0 59833 7200.00000 0 19241820.368 -12393530.758 -11302137.678 10 0 59833 8100.00000 0 20296246.848 -13026336.557 -8367312.551 10 0 59833 9000.00000 0 20966386.079 -13575711.578 -5270302.338 10 0 59833 9900.00000 0 21256940.716 -13983162.972 -2071141.139 10 0 59833 10800.00000 0 21185785.825 -14193817.860 1168162.743 10 0 59833 11700.00000 0 20783058.444 -14158923.317 4384823.056 10 0 59833 12600.00000 0 20089750.396 -13838102.180 7516486.967 10 0 59833 13500.00000 0 19155863.854 -13201269.505 10502438.395 10 0 59833 14400.00000 0 18038207.245 -12230128.682 13284770.264 10 0 59833 15300.00000 0 16797923.833 -10919183.316 15809503.232 10 0 59833 16200.00000 0 15497856.544 -9276221.358 18027629.518 10 0 59833 17100.00000 0 14199859.316 -7322249.717 19896061.974 10 0 59833 18000.00000 0 12962167.459 -5090880.434 21378470.239 10 0 59833 18900.00000 0 11836936.981 -2627192.216 22445988.049 10 0 59833 19800.00000 0 10868055.841 13887.189 23077778.123 10 0 59833 20700.00000 0 10089318.824 2769612.256 23261443.546 10 0 59833 21600.00000 0 9523042.627 5571781.891 22993277.444 10 0 59833 22500.00000 0 9179179.533 8349335.988 22278345.518 10 0 59833 23400.00000 0 9054967.313 11031079.560 21130399.103 10 0 59833 24300.00000 0 9135130.615 13548422.111 19571619.457 10 0 59833 25200.00000 0 9392625.974 15838018.811 17632197.202 10 0 59833 26100.00000 0 9789899.645 17844203.523 15349754.053 10 0 59833 27000.00000 0 10280605.591 19521112.111 12768617.139 10 0 59833 27900.00000 0 10811711.298 20834407.003 9938959.352 10 0 59833 28800.00000 0 11325902.182 21762530.396 6915822.132 10 0 59833 29700.00000 0 11764182.377 22297433.283 3758039.805 10 0 59833 30600.00000 0 12068560.836 22444749.611 527086.795 10 0 59833 31500.00000 0 12184707.836 22223408.406 -2714128.842 10 0 59833 32400.00000 0 12064467.921 21664700.799 -5902501.052 10 0 59833 33300.00000 0 11668121.430 20810842.159 -8975965.209 10 0 59833 34200.00000 0 10966297.495 19713091.149 -11874715.879 10 0 59833 35100.00000 0 9941456.399 18429506.409 -14542378.085 10 0 59833 36000.00000 0 8588877.709 17022436.792 -16927108.460 10 0 59833 36900.00000 0 6917111.856 15555852.183 -18982604.298 10 0 59833 37800.00000 0 4947875.733 14092628.258 -20669000.843 10 0 59833 38700.00000 0 2715396.422 12691899.902 -21953639.751 10 0 59833 39600.00000 0 265230.528 11406594.638 -22811694.446 10 0 59833 40500.00000 0 -2347391.627 10281249.142 -23226641.231 10 0 59833 41400.00000 0 -5059628.002 9350199.556 -23190568.134 10 0 59833 42300.00000 0 -7803407.346 8636220.201 -22704316.602 10 0 59833 43200.00000 0 -10508033.598 8149666.230 -21777454.347 10 0 59833 44100.00000 0 -13102904.658 7888154.513 -20428080.674 10 0 59833 45000.00000 0 -15520233.400 7836794.590 -18682468.639 10 0 59833 45900.00000 0 -17697659.020 7968958.589 -16574551.269 10 0 59833 46800.00000 0 -19580641.411 8247556.667 -14145261.772 10 0 59833 47700.00000 0 -21124540.194 8626763.564 -11441740.390 10 0 59833 48600.00000 0 -22296293.073 9054123.168 -8516422.863 10 0 59833 49500.00000 0 -23075624.854 9472942.256 -5426027.752 10 0 59833 50400.00000 0 -23455737.619 9824872.605 -2230461.820 10 0 59833 51300.00000 0 -23443454.143 10052572.718 1008335.742 10 0 59833 52200.00000 0 -23058809.203 10102337.018 4227588.264 10 0 59833 53100.00000 0 -22334106.337 9926581.677 7364892.792 10 0 59833 54000.00000 0 -21312479.967 9486082.209 10359424.396 10 0 59833 54900.00000 0 -20046023.141 8751868.124 13153110.535 10 0 59833 55800.00000 0 -18593559.336 7706694.334 15691752.949 10 0 59833 56700.00000 0 -17018151.422 6346026.456 17926075.653 10 0 59833 57600.00000 0 -15384451.748 4678497.289 19812679.108 10 0 59833 58500.00000 0 -13756003.935 2725813.805 21314882.290 10 0 59833 59400.00000 0 -12192608.878 522116.697 22403436.649 10 0 59833 60300.00000 0 -10747864.754 -1887182.826 23057098.221 10 0 59833 61200.00000 0 -9466983.654 -4447042.436 23263046.755 10 0 59833 62100.00000 0 -8384976.028 -7094838.007 23017143.440 10 0 59833 63000.00000 0 -7525278.848 -9762739.392 22324021.728 10 0 59833 63900.00000 0 -6898885.118 -12380315.191 21197008.724 10 0 59833 64800.00000 0 -6504011.422 -14877259.299 19657877.739 10 0 59833 65700.00000 0 -6326317.748 -17186126.432 17736435.728 10 0 59833 66600.00000 0 -6339670.681 -19244962.823 15469952.632 10 0 59833 67500.00000 0 -6507417.965 -20999722.295 12902442.747 10 0 59833 68400.00000 0 -6784120.707 -22406366.338 10083811.412 10 0 59833 69300.00000 0 -7117669.807 -23432559.735 7068883.272 10 0 59833 70200.00000 0 -7451696.520 -24058890.091 3916331.077 10 0 59833 71100.00000 0 -7728174.226 -24279559.620 687526.262 10 0 59833 72000.00000 0 -7890099.985 -24102519.907 -2554665.410 10 0 59833 72900.00000 0 -7884140.878 -23549044.102 -5747118.586 10 0 59833 73800.00000 0 -7663131.446 -22652755.103 -8827688.194 10 0 59833 74700.00000 0 -7188315.026 -21458151.494 -11736428.887 10 0 59833 75600.00000 0 -6431232.741 -20018694.499 -14416769.227 10 0 59833 76500.00000 0 -5375179.158 -18394537.730 -16816616.897 10 0 59833 77400.00000 0 -4016162.367 -16649996.546 -18889372.843 10 0 59833 78300.00000 0 -2363327.417 -14850864.440 -20594834.567 10 0 59833 79200.00000 0 -438824.946 -13061689.860 -21899971.368 10 0 59833 80100.00000 0 1722869.639 -11343128.013 -22779557.097 10 0 59833 81000.00000 0 4076158.018 -9749478.368 -23216649.132 10 0 59833 81900.00000 0 6565991.821 -8326510.189 -23202905.408 10 0 59833 82800.00000 0 9129946.816 -7109665.940 -22738734.430 10 0 59833 83700.00000 0 11700612.431 -6122716.127 -21833276.444 10 0 59833 84600.00000 0 14208197.740 -5376920.062 -20504216.920 10 0 59833 85500.00000 0 16583246.166 -4870725.878 -18777436.571 10 0 59834 0.00000 0 18759346.759 -4590020.576 -16686505.200 10 0 59834 900.00000 0 20675731.456 -4508917.935 -14272027.981 10 0 59834 1800.00000 0 22279648.261 -4591050.310 -11580859.641 10 0 59834 2700.00000 0 23528416.627 -4791308.530 -8665197.621 10 0 59834 3600.00000 0 24391077.309 -5057956.552 -5581574.101 10 0 59834 4500.00000 0 24849569.832 -5335031.271 -2389764.973 10 0 59834 5400.00000 0 24899389.098 -5564926.280 848363.388 10 0 59834 6300.00000 0 24549694.004 -5691050.588 4070047.628 10 0 59834 7200.00000 0 23822863.928 -5660450.142 7212838.301 10 0 59834 8100.00000 0 22753521.889 -5426281.550 10215805.021 10 0 59834 9000.00000 0 21387065.186 -4950033.460 13020712.833 10 0 59834 9900.00000 0 19777764.888 -4203401.607 15573147.179 10 0 59834 10800.00000 0 17986513.281 -3169737.761 17823566.057 10 0 59834 11700.00000 0 16078313.067 -1845010.651 19728259.266 10 0 59834 12600.00000 0 14119612.778 -238237.097 21250196.423 10 0 59834 13500.00000 0 12175599.154 1628636.392 22359747.575 10 0 59834 14400.00000 0 10307559.006 3721398.554 23035262.592 10 0 59834 15300.00000 0 8570420.274 5994759.086 23263498.012 10 0 59834 16200.00000 0 7010574.524 8394007.709 23039882.860 10 0 59834 17100.00000 0 5664071.549 10857079.424 22368617.754 10 0 59834 18000.00000 0 4555261.436 13316941.508 21262604.637 10 0 59834 18900.00000 0 3695940.863 15704204.173 19743207.597 10 0 59834 19800.00000 0 3085039.405 17949847.019 17839848.345 10 0 59834 20700.00000 0 2708859.152 19987947.936 15589443.175 10 0 59834 21600.00000 0 2541857.501 21758300.543 13035691.431 10 0 59834 22500.00000 0 2547940.050 23208810.367 10228228.538 10 0 59834 23400.00000 0 2682208.710 24297568.733 7221659.778 10 0 59834 24300.00000 0 2893090.553 24994516.658 4074493.576 10 0 59834 25200.00000 0 3124756.406 25282628.135 847995.488 10 0 59834 26100.00000 0 3319725.620 25158562.459 -2395013.962 10 0 59834 27000.00000 0 3421545.217 24632757.889 -5591393.072 10 0 59834 27900.00000 0 3377428.342 23728962.773 -8678919.164 10 0 59834 28800.00000 0 3140738.724 22483224.323 -11597509.649 10 0 59834 29700.00000 0 2673214.471 20942378.425 -14290399.063 10 0 59834 30600.00000 0 1946835.895 19162104.998 -16705248.307 10 0 59834 31500.00000 0 945257.528 17204631.801 -18795163.863 10 0 59834 32400.00000 0 -335256.813 15136184.121 -20519607.103 10 0 59834 33300.00000 0 -1885435.671 13024288.097 -21845176.329 10 0 59834 34200.00000 0 -3683155.269 10935041.105 -22746246.923 10 0 59834 35100.00000 0 -5694142.063 8930463.365 -23205458.194 10 0 59834 36000.00000 0 -7873193.234 7066040.904 -23214038.541 10 0 59834 36900.00000 0 -10165864.146 5388561.499 -22771963.760 10 0 59834 37800.00000 0 -12510552.620 3934332.486 -21887946.484 10 0 59834 38700.00000 0 -14840893.555 2727853.011 -20579257.795 10 0 59834 39600.00000 0 -17088364.629 1780994.299 -18871385.091 10 0 59834 40500.00000 0 -19184995.318 1092720.161 -16797533.167 10 0 59834 41400.00000 0 -21066067.259 649357.555 -14397978.202 10 0 59834 42300.00000 0 -22672694.279 425404.232 -11719287.051 10 0 59834 43200.00000 0 -23954175.453 384838.200 -8813416.616 10 0 59834 44100.00000 0 -24870023.797 482872.969 -5736710.292 10 0 59834 45000.00000 0 -25391586.720 668084.059 -2548810.563 10 0 59834 45900.00000 0 -25503190.976 884816.799 688491.663 10 0 59834 46800.00000 0 -25202764.529 1075773.720 3912449.094 10 0 59834 47700.00000 0 -24501909.660 1184672.351 7060568.613 10 0 59834 48600.00000 0 -23425424.118 1158861.240 10071817.249 10 0 59834 49500.00000 0 -22010290.252 951783.728 12887800.484 10 0 59834 50400.00000 0 -20304174.084 525185.396 15453890.270 10 0 59834 51300.00000 0 -18363496.522 -149028.350 17720281.228 10 0 59834 52200.00000 0 -16251156.687 -1087363.547 19642954.915 10 0 59834 53100.00000 0 -14034001.793 -2293798.903 21184533.687 10 0 59834 54000.00000 0 -11780148.395 -3759377.847 22315007.926 10 0 59834 54900.00000 0 -9556265.962 -5462350.237 23012322.659 10 0 59834 55800.00000 0 -7424935.418 -7368859.659 23262812.131 10 0 59834 56700.00000 0 -5442192.092 -9434149.632 23061473.712 10 0 59834 57600.00000 0 -3655355.062 -11604240.340 22412075.299 10 0 59834 58500.00000 0 -2101233.139 -13818007.681 21327093.420 10 0 59834 59400.00000 0 -804782.156 -16009579.389 19827482.336 10 0 59834 60300.00000 0 221730.426 -18110949.360 17942277.545 10 0 59834 61200.00000 0 979018.661 -20054701.567 15708040.386 10 0 59834 62100.00000 0 1480516.830 -21776729.880 13168153.585 10 0 59834 63000.00000 0 1751574.975 -23218839.690 10371980.663 10 0 59834 63900.00000 0 1828145.454 -24331121.590 7373905.237 10 0 59834 64800.00000 0 1755016.653 -25073996.682 4232268.862 10 0 59834 65700.00000 0 1583669.377 -25419846.584 1008228.448 10 0 59834 66600.00000 0 1369847.785 -25354158.665 -2235443.643 10 0 59834 67500.00000 0 1170949.168 -24876137.651 -5435592.405 10 0 59834 68400.00000 0 1043344.685 -23998757.466 -8529920.687 10 0 59834 69300.00000 0 1039746.152 -22748251.130 -11458211.820 10 0 59834 70200.00000 0 1206731.911 -21163060.594 -14163509.450 10 0 59834 71100.00000 0 1582537.830 -19292291.299 -16593230.720 10 0 59834 72000.00000 0 2195207.813 -17193737.334 -18700190.478 10 0 59834 72900.00000 0 3061182.672 -14931560.948 -20443516.504 10 0 59834 73800.00000 0 4184387.308 -12573724.405 -21789438.243 10 0 59834 74700.00000 0 5555854.757 -10189282.240 -22711934.297 10 0 59834 75600.00000 0 7153902.921 -7845647.147 -23193227.094 10 0 59834 76500.00000 0 8944856.581 -5605943.255 -23224116.198 10 0 59834 77400.00000 0 10884284.324 -3526556.408 -22804144.916 10 0 59834 78300.00000 0 12918698.782 -1654982.219 -21941598.051 10 0 59834 79200.00000 0 14987649.374 -28059.904 -20653331.671 10 0 59834 80100.00000 0 17026120.511 1329336.356 -18964438.859 10 0 59834 81000.00000 0 18967135.767 2405096.006 -16907758.232 10 0 59834 81900.00000 0 20744460.048 3200129.388 -14523234.833 10 0 59834 82800.00000 0 22295287.669 3728074.792 -11857145.662 10 0 59834 83700.00000 0 23562804.883 4014469.246 -8961204.532 10 0 59834 84600.00000 0 24498520.526 4095419.208 -5891563.130 10 0 59834 85500.00000 0 25064267.956 4015828.002 -2707727.314 10 0 59835 0.00000 0 25233794.978 3827255.309 528590.622 10 0 59835 900.00000 0 24993875.547 3585499.146 3754663.550 10 0 59835 1800.00000 0 24344896.494 3348002.727 6907957.871 10 0 59835 2700.00000 0 23300894.894 3171195.340 9927341.361 10 0 59835 3600.00000 0 21889043.976 3107879.645 12754263.020 10 0 59835 4500.00000 0 20148608.557 3204775.607 15333884.056 10 0 59835 5400.00000 0 18129413.004 3500324.840 17616138.114 10 0 59835 6300.00000 0 15889884.870 4022848.316 19556700.521 10 0 59835 7200.00000 0 13494754.930 4789135.724 21117848.022 10 0 59835 8100.00000 0 11012508.633 5803526.839 22269192.608 10 0 59835 9000.00000 0 8512694.124 7057524.836 22988275.375 10 0 59835 9900.00000 0 6063198.151 8529959.397 23261008.815 10 0 59835 10800.00000 0 3727602.423 10187694.603 23081958.791 10 0 59835 11700.00000 0 1562729.782 11986853.878 22454460.235 10 0 59835 12600.00000 0 -383518.028 13874512.559 21390563.606 10 0 59835 13500.00000 0 -2073941.293 15790788.928 19910812.272 10 0 59835 14400.00000 0 -3483367.860 17671247.550 18043854.078 10 0 59835 15300.00000 0 -4599467.988 19449515.181 15825893.626 10 0 59835 16200.00000 0 -5423024.580 21060000.052 13299994.939 10 0 59835 17100.00000 0 -5967647.705 22440600.484 10515247.302 10 0 59835 18000.00000 0 -6258945.756 23535288.503 7525810.137 10 0 59835 18900.00000 0 -6333188.791 24296459.093 4389855.424 10 0 59835 19800.00000 0 -6235521.347 24686945.163 1168428.590 10 0 59835 20700.00000 0 -6017801.354 24681612.268 -2075749.079 10 0 59835 21600.00000 0 -5736157.989 24268464.931 -5279512.222 10 0 59835 22500.00000 0 -5448373.409 23449217.175 -8380492.109 10 0 59835 23400.00000 0 -5211200.830 22239302.839 -11318340.770 10 0 59835 24300.00000 0 -5077734.082 20667325.153 -14035913.561 10 0 59835 25200.00000 0 -5094941.350 18773969.044 -16480386.232 10 0 59835 26100.00000 0 -5301468.491 16610422.397 -18604284.098 10 0 59835 27000.00000 0 -5725805.494 14236373.214 -20366403.170 10 0 59835 27900.00000 0 -6384893.902 11717667.193 -21732605.592 10 0 59835 28800.00000 0 -7283233.943 9123724.250 -22676474.468 10 0 59835 29700.00000 0 -8412528.879 6524822.075 -23179816.343 10 0 59835 30600.00000 0 -9751881.261 3989359.773 -23233002.627 10 0 59835 31500.00000 0 -11268532.576 1581215.037 -22835144.480 10 0 59835 32400.00000 0 -12919115.133 -642696.243 -21994098.823 10 0 59835 33300.00000 0 -14651363.731 -2634557.889 -20726306.260 10 0 59835 34200.00000 0 -16406215.610 -4357401.590 -19056464.674 10 0 59835 35100.00000 0 -18120211.231 -5786394.549 -17017045.218 10 0 59835 36000.00000 0 -19728095.982 -6909615.003 -14647660.144 10 0 59835 36900.00000 0 -21165514.583 -7728285.242 -11994294.639 10 0 59835 37800.00000 0 -22371686.125 -8256454.211 -9108417.205 10 0 59835 38700.00000 0 -23291948.457 -8520144.650 -6045985.418 10 0 59835 39600.00000 0 -23880065.917 -8556001.769 -2866365.916 10 0 59835 40500.00000 0 -24100204.079 -8409501.180 368810.906 10 0 59835 41400.00000 0 -23928489.014 -8132792.127 3596839.757 10 0 59835 42300.00000 0 -23354085.581 -7782267.159 6755150.083 10 0 59835 43200.00000 0 -22379749.385 -7415960.876 9782513.397 10 0 59835 44100.00000 0 -21021828.773 -7090887.424 12620225.225 10 0 59835 45000.00000 0 -19309716.105 -6860428.987 15213238.968 10 0 59835 45900.00000 0 -17284770.396 -6771885.387 17511230.050 10 0 59835 46800.00000 0 -14998755.159 -6864288.225 19469570.081 10 0 59835 47700.00000 0 -12511855.640 -7166571.964 21050192.353 10 0 59835 48600.00000 0 -9890356.851 -7696179.573 22222332.229 10 0 59835 49500.00000 0 -7204077.909 -8458162.281 22963128.192 10 0 59835 50400.00000 0 -4523668.365 -9444812.467 23258071.857 10 0 59835 51300.00000 0 -1917877.956 -10635846.593 23101298.037 10 0 59835 52200.00000 0 549087.594 -11999132.152 22495708.757 10 0 59835 53100.00000 0 2820015.285 -13491929.834 21452928.108 10 0 59835 54000.00000 0 4846836.696 -15062600.435 19993087.932 10 0 59835 54900.00000 0 6592393.615 -16652706.372 18144447.468 10 0 59835 55800.00000 0 8031743.898 -18199420.623 15942853.294 10 0 59835 56700.00000 0 9152953.137 -19638142.604 13431049.112 10 0 59835 57600.00000 0 9957339.154 -20905211.214 10657848.008 10 0 59835 58500.00000 0 10459159.317 -21940600.541 7677182.903 10 0 59835 59400.00000 0 10684754.352 -22690484.055 4547053.597 10 0 59835 60300.00000 0 10671185.492 -23109558.159 1328391.191 10 0 59835 61200.00000 0 10464423.463 -23163025.932 -1916137.149 10 0 59835 62100.00000 0 10117167.192 -22828156.201 -5123358.845 10 0 59835 63000.00000 0 9686385.960 -22095351.095 -8230836.778 10 0 59835 63900.00000 0 9230690.597 -20968676.289 -11178094.847 10 0 59835 64800.00000 0 8807646.580 -19465831.114 -13907803.198 10 0 59835 65700.00000 0 8471144.131 -17617559.664 -16366899.122 10 0 59835 66600.00000 0 8268937.687 -15466527.847 -18507621.113 10 0 59835 67500.00000 0 8240459.522 -13065713.911 -20288435.825 10 0 59835 68400.00000 0 8415000.225 -10476380.312 -21674840.129 10 0 59835 69300.00000 0 8810332.831 -7765712.202 -22640023.223 10 0 59835 70200.00000 0 9431838.248 -5004221.349 -23165376.876 10 0 59835 71100.00000 0 10272168.375 -2263023.588 -23240844.970 10 0 59835 72000.00000 0 11311460.491 388897.256 -22865106.664 10 0 59835 72900.00000 0 12518093.415 2887326.037 -22045590.723 10 0 59835 73800.00000 0 13849953.372 5175245.232 -20798321.596 10 0 59835 74700.00000 0 15256156.276 7204956.682 -19147600.922 10 0 59835 75600.00000 0 16679154.303 8939809.765 -17125530.998 10 0 59835 76500.00000 0 18057138.755 10355466.037 -14771389.558 10 0 59835 77400.00000 0 19326638.848 11440649.531 -12130867.894 10 0 59835 78300.00000 0 20425208.076 12197353.377 -9255186.793 10 0 59835 79200.00000 0 21294086.043 12640495.783 -6200106.992 10 0 59835 80100.00000 0 21880724.514 12797041.177 -3024852.927 10 0 59835 81000.00000 0 22141072.245 12704624.600 209029.803 10 0 59835 81900.00000 0 22041522.722 12409737.873 3438861.598 10 0 59835 82800.00000 0 21560442.997 11965554.324 6602037.918 10 0 59835 83700.00000 0 20689219.329 11429483.983 9637237.169 10 0 59835 84600.00000 0 19432775.111 10860562.251 12485604.351 10 0 59835 85500.00000 0 17809538.665 10316781.977 15091887.751 99